Stations météo

réclame
Mon MeteoGroup
Jersey Airport, Grande-Bretagne (3895): Température de l'air & dewpoint: 12.01.2020 01:00:00 - 18.01.2020 01:00:00 (GMT)Jersey Airport, Grande-Bretagne (3895): Température de l'air -20cm & Température de l'air -100cm: 12.01.2020 01:00:00 - 18.01.2020 01:00:00 (GMT)Jersey Airport, Grande-Bretagne (3895): Vitesse du vent & gusts: 12.01.2020 01:00:00 - 18.01.2020 01:00:00 (GMT)Jersey Airport, Grande-Bretagne (3895): Direction du vent: 12.01.2020 01:00:00 - 18.01.2020 01:00:00 (GMT)Jersey Airport, Grande-Bretagne (3895): reduced air pressure: 12.01.2020 01:00:00 - 18.01.2020 01:00:00 (GMT)Jersey Airport, Grande-Bretagne (3895): visibility: 12.01.2020 01:00:00 - 18.01.2020 01:00:00 (GMT)Jersey Airport, Grande-Bretagne (3895): Ensoleillement: 12.01.2020 01:00:00 - 18.01.2020 01:00:00 (GMT)Jersey Airport, Grande-Bretagne (3895): Quantités de précipitations: 12.01.2020 01:00:00 - 18.01.2020 01:00:00 (GMT)
Date & Time tt [°C] td [°C] tt -20cm [°C] tt -100cm [°C] ff [km/h] ff [knt] fx [km/h] fx [knt] dd ppp [hPa] vv [km] sd [min] rr [mm]
18.01.2020 01:00:00 7,4 4,9 - - 29 16 50 27 W 1025,0 23 0 0,2
18.01.2020 00:00:00 7,6 4,2 - - 29 16 - - W 1024,5 10 - 0,0
17.01.2020 23:00:00 7,2 3,9 - - 29 16 63 34 WNW 1023,9 17 0 0,2
17.01.2020 22:00:00 7,3 2,6 - - 34 18 54 29 W 1023,5 10 0 0,0
17.01.2020 21:00:00 7,3 3,8 - - 29 16 61 33 W 1022,8 10 0 0,0
17.01.2020 20:00:00 6,4 4,8 - - 26 14 57 31 W 1022,2 15 0 1,2
17.01.2020 19:00:00 7,1 5,3 - - 31 17 55 30 WSW 1021,6 10 0 0,6
17.01.2020 18:00:00 7,7 3,8 - - 42 23 57 31 WSW 1021,4 10 0 0,0
17.01.2020 17:00:00 6,8 4,2 - - 34 18 54 29 WSW 1020,8 10 0 0,2
17.01.2020 16:00:00 7,4 4,2 - - 39 21 68 37 WSW 1020,4 10 18 0,2
17.01.2020 15:00:00 7,5 4,2 - - 42 23 61 33 WSW 1019,9 10 0 0,0
17.01.2020 14:00:00 7,9 4,8 - - 34 18 50 27 WSW 1019,1 15 6 0,2
17.01.2020 13:00:00 8,6 3,7 - - 29 16 54 29 W 1018,8 10 30 0,2
17.01.2020 12:00:00 8,3 4,6 - - 29 16 59 32 W 1018,2 10 12 0,0
17.01.2020 11:00:00 8,4 3,6 - - 37 20 54 29 W 1017,8 10 6 0,0
17.01.2020 10:00:00 7,5 5,5 - - 28 15 76 41 W 1016,8 10 6 1,0
17.01.2020 09:00:00 8,6 4,2 10,4 9,7 37 20 72 39 W 1015,4 10 12 0,0
17.01.2020 08:00:00 8,8 4,5 - - 48 26 70 38 W 1013,7 10 0 0,0
17.01.2020 07:00:00 8,6 5,7 - - 39 21 59 32 WSW 1012,8 10 0 0,0
17.01.2020 06:00:00 8,6 5,8 - - 35 19 52 28 SW 1012,1 10 0 0,0
17.01.2020 05:00:00 9,2 5,9 - - 41 22 52 28 SW 1011,4 22 0 0,0
17.01.2020 04:00:00 9,9 7,3 - - 28 15 - - SW 1011,3 26 0 0,0
17.01.2020 03:00:00 9,8 8,9 - - 18 10 - - S 1011,2 10 0 0,0
17.01.2020 02:00:00 9,8 9,1 - - 22 12 - - S 1011,3 10 0 0,0
17.01.2020 01:00:00 9,6 9,0 - - 18 10 - - S 1011,1 10 0 0,0
17.01.2020 00:00:00 10,1 9,1 - - 22 12 - - S 1011,3 10 - 0,0
16.01.2020 23:00:00 10,2 9,2 - - 26 14 - - SSW 1011,4 24 0 0,0
16.01.2020 22:00:00 10,2 9,6 - - 22 12 - - SSW 1011,4 10 0 0,4
16.01.2020 21:00:00 10,4 10,1 - - 26 14 - - S 1011,6 10 0 0,8
16.01.2020 20:00:00 10,6 10,2 - - 24 13 46 25 S 1011,9 10 0 1,6
16.01.2020 19:00:00 10,7 10,3 - - 29 16 48 26 S 1011,8 10 0 2,0
16.01.2020 18:00:00 11,2 10,0 - - 31 17 67 36 S 1011,5 9 0 1,0
16.01.2020 17:00:00 11,4 9,2 - - 39 21 61 33 S 1011,3 18 0 0,2
16.01.2020 16:00:00 12,3 8,6 - - 37 20 54 29 SSE 1011,1 27 0 0,0
16.01.2020 15:00:00 12,1 8,2 - - 39 21 55 30 S 1011,5 10 0 0,0
16.01.2020 14:00:00 11,8 7,6 - - 39 21 61 33 S 1012,3 10 0 0,0
16.01.2020 13:00:00 11,8 7,8 - - 37 20 61 33 S 1012,5 10 6 0,0
16.01.2020 12:00:00 10,9 7,2 - - 42 23 63 34 S 1013,3 30 30 0,0
16.01.2020 11:00:00 10,4 7,4 - - 39 21 59 32 SSE 1014,3 26 6 0,0
16.01.2020 10:00:00 9,0 7,7 - - 39 21 52 28 SSE 1015,4 10 0 0,0
16.01.2020 09:00:00 8,5 7,4 10,2 9,7 35 19 54 29 SSE 1016,3 17 0 0,0
16.01.2020 08:00:00 8,0 6,8 - - 31 17 - - SSE 1016,2 21 0 0,0
16.01.2020 07:00:00 8,1 7,1 - - 34 18 46 25 SSE 1016,9 10 0 0,0
16.01.2020 06:00:00 7,9 6,8 - - 29 16 - - SSE 1017,4 25 0 0,0
16.01.2020 05:00:00 7,8 6,5 - - 24 13 - - SSE 1018,4 10 0 0,0
16.01.2020 04:00:00 7,8 6,2 - - 21 11 - - SSE 1019,2 10 0 0,0
16.01.2020 03:00:00 7,9 6,4 - - 26 14 - - S 1019,8 25 0 0,0
16.01.2020 02:00:00 7,6 5,7 - - 16 9 - - S 1019,9 10 0 0,0
16.01.2020 01:00:00 7,8 5,6 - - 18 10 - - S 1020,2 10 0 0,0
16.01.2020 00:00:00 7,7 5,7 - - 21 11 - - S 1020,4 18 - 0,0
15.01.2020 23:00:00 8,3 5,7 - - 24 13 - - S 1020,1 20 0 0,0
15.01.2020 22:00:00 8,3 5,6 - - 21 11 - - SSW 1020,1 10 0 0,0
15.01.2020 21:00:00 8,3 5,4 - - 18 10 - - SSW 1020,0 10 0 0,0
15.01.2020 20:00:00 8,2 4,9 - - 18 10 - - SW 1019,5 10 0 0,0
15.01.2020 19:00:00 8,6 5,8 - - 16 9 - - SW 1019,1 10 0 0,0
15.01.2020 18:00:00 8,3 5,7 - - 18 10 - - SW 1018,0 10 0 0,0
15.01.2020 17:00:00 8,4 5,9 - - 18 10 - - SW 1017,0 24 6 0,0
15.01.2020 16:00:00 8,9 5,4 - - 21 11 - - WSW 1015,6 10 60 0,0
15.01.2020 15:00:00 9,7 6,9 - - 28 15 - - WSW 1014,3 10 60 0,0
15.01.2020 14:00:00 9,8 6,9 - - 26 14 - - WSW 1013,0 30 54 0,0
15.01.2020 13:00:00 10,1 8,1 - - 31 17 - - WSW 1011,9 10 48 0,0
15.01.2020 12:00:00 9,5 7,6 - - 26 14 - - W 1011,1 10 6 0,0
15.01.2020 11:00:00 8,1 7,1 - - 21 11 - - W 1010,0 10 0 0,0
15.01.2020 10:00:00 7,4 7,1 - - 13 7 - - WNW 1008,0 12 0 0,6
15.01.2020 09:00:00 7,0 6,7 10,7 9,7 9 5 - - N 1005,7 7 0 3,4
15.01.2020 08:00:00 6,8 6,2 - - 18 10 - - NW 1004,6 7 0 4,2
15.01.2020 07:00:00 9,5 8,6 - - 34 18 59 32 WSW 1003,0 6 0 3,0
15.01.2020 06:00:00 10,6 9,6 - - 29 16 54 29 S 1001,9 8 0 1,8
15.01.2020 05:00:00 11,2 9,4 - - 35 19 67 36 SSW 1001,9 8 0 0,2
15.01.2020 04:00:00 11,8 8,9 - - 41 22 67 36 SSW 1002,1 10 0 0,0
15.01.2020 03:00:00 12,0 8,8 - - 44 24 68 37 SSW 1002,2 10 0 0,2
15.01.2020 02:00:00 12,1 8,8 - - 46 25 70 38 SSW 1002,1 9 0 0,2
15.01.2020 01:00:00 12,2 8,6 - - 37 20 70 38 S 1002,2 10 0 0,0
15.01.2020 00:00:00 12,0 8,8 - - 37 20 80 43 S 1002,5 10 - 0,0
14.01.2020 23:00:00 12,3 9,1 - - 57 31 83 45 S 1002,6 13 0 0,0
14.01.2020 22:00:00 11,9 9,4 - - 46 25 80 43 S 1002,3 10 0 0,0
14.01.2020 21:00:00 12,1 9,5 - - 50 27 74 40 SSW 1002,4 9 0 0,2
14.01.2020 20:00:00 11,9 9,5 - - 48 26 72 39 SSW 1002,1 10 0 0,0
14.01.2020 19:00:00 11,7 9,5 - - 54 29 72 39 SSW 1001,8 10 0 0,0
14.01.2020 18:00:00 11,9 10,0 - - 46 25 72 39 SSW 1001,3 10 0 0,0
14.01.2020 17:00:00 11,8 10,1 - - 48 26 68 37 SSW 1000,9 10 0 0,0
14.01.2020 16:00:00 12,1 10,3 - - 46 25 68 37 SSW 1000,6 10 0 0,0
14.01.2020 15:00:00 12,3 10,6 - - 44 24 67 36 SSW 1000,2 12 0 0,0
14.01.2020 14:00:00 12,3 10,7 - - 41 22 67 36 SSW 999,9 16 0 0,0
14.01.2020 13:00:00 12,3 10,9 - - 44 24 70 38 SSW 999,9 10 0 0,0
14.01.2020 12:00:00 12,2 11,1 - - 44 24 68 37 SSW 1000,2 10 0 0,0
14.01.2020 11:00:00 11,4 10,7 - - 41 22 54 29 S 1000,2 6 0 0,2
14.01.2020 10:00:00 10,6 9,9 - - 28 15 48 26 S 1000,7 10 0 0,0
14.01.2020 09:00:00 10,2 9,7 10,2 9,7 24 13 - - S 1001,2 10 0 0,2
14.01.2020 08:00:00 10,2 8,9 - - 28 15 50 27 SSW 1001,8 14 0 0,2
14.01.2020 07:00:00 10,2 8,1 - - 31 17 - - SSW 1001,8 21 0 0,0
14.01.2020 06:00:00 9,7 8,9 - - 24 13 - - SSW 1002,0 10 0 0,0
14.01.2020 05:00:00 9,7 8,4 - - 28 15 46 25 SW 1001,7 10 0 0,0
14.01.2020 04:00:00 9,5 7,6 - - 26 14 - - SW 1001,5 10 0 0,0
14.01.2020 03:00:00 9,5 7,4 - - 39 21 - - WSW 1001,6 10 0 0,0
14.01.2020 02:00:00 9,0 7,8 - - 26 14 48 26 SW 1001,3 10 0 0,2
14.01.2020 01:00:00 9,1 8,9 - - 34 18 46 25 WSW 1001,4 10 0 2,2
14.01.2020 00:00:00 8,4 8,2 - - 26 14 57 31 W 1001,8 2,1 - 3,6
13.01.2020 23:00:00 10,6 9,9 - - 42 23 61 33 SSW 1000,8 8 0 0,8
13.01.2020 22:00:00 10,6 9,7 - - 48 26 63 34 SSW 1000,9 8 0 0,8
13.01.2020 21:00:00 10,6 9,5 - - 46 25 65 35 SSW 1001,7 7 0 0,8
13.01.2020 20:00:00 10,8 9,6 - - 41 22 65 35 SSW 1002,2 9 0 0,8
13.01.2020 19:00:00 10,7 9,5 - - 41 22 63 34 SSW 1003,0 10 0 0,6
13.01.2020 18:00:00 10,9 9,4 - - 37 20 68 37 S 1003,4 10 0 0,0
13.01.2020 17:00:00 11,1 8,7 - - 39 21 59 32 SSW 1004,1 10 0 0,0
13.01.2020 16:00:00 10,7 8,4 - - 37 20 59 32 S 1004,9 10 0 0,0
13.01.2020 15:00:00 10,9 7,9 - - 37 20 54 29 SSW 1006,3 10 0 0,0
13.01.2020 14:00:00 10,3 8,3 - - 37 20 59 32 SSW 1007,4 10 0 0,0
13.01.2020 13:00:00 9,8 8,1 - - 26 14 48 26 S 1009,1 10 0 0,0
13.01.2020 12:00:00 9,0 7,9 - - 28 15 48 26 S 1010,9 10 0 0,0
13.01.2020 11:00:00 8,5 7,2 - - 31 17 48 26 S 1012,6 22 0 0,0
13.01.2020 10:00:00 8,2 7,4 - - 26 14 48 26 S 1014,0 10 0 0,0
13.01.2020 09:00:00 7,8 6,7 10,0 9,7 22 12 - - S 1015,0 10 0 0,0
13.01.2020 08:00:00 7,6 6,4 - - 22 12 - - S 1015,9 10 0 0,0
13.01.2020 07:00:00 7,7 6,3 - - 26 14 - - S 1016,7 18 0 0,0
13.01.2020 06:00:00 7,8 6,3 - - 26 14 - - SSW 1017,3 18 0 0,0
13.01.2020 05:00:00 7,7 6,2 - - 21 11 - - SSW 1018,3 10 0 0,0
13.01.2020 04:00:00 7,5 6,3 - - 22 12 - - SSW 1019,4 19 0 0,0
13.01.2020 03:00:00 7,7 6,5 - - 18 10 - - SSW 1020,4 10 0 0,0
13.01.2020 02:00:00 7,8 6,6 - - 16 9 - - SSW 1021,2 10 0 0,0
13.01.2020 01:00:00 8,1 6,4 - - 18 10 - - SSW 1022,1 10 0 0,0
13.01.2020 00:00:00 8,3 6,3 - - 18 10 57 31 SW 1023,0 10 - 0,0
12.01.2020 23:00:00 8,3 6,2 - - 18 10 - - SW 1023,4 10 0 0,0
12.01.2020 22:00:00 8,4 5,9 - - 16 9 - - SW 1023,6 10 0 0,0
12.01.2020 21:00:00 9,1 6,3 - - 18 10 - - SW 1024,0 10 0 0,0
12.01.2020 20:00:00 8,2 5,8 - - 21 11 - - WSW 1024,2 10 0 0,0
12.01.2020 19:00:00 8,6 5,6 - - 24 13 - - WSW 1024,4 10 0 0,0
12.01.2020 18:00:00 8,7 5,6 - - 24 13 - - W 1024,6 10 0 0,0
12.01.2020 17:00:00 9,0 6,0 - - 22 12 - - W 1024,5 11 0 0,0
12.01.2020 16:00:00 9,6 6,4 - - 24 13 - - W 1024,2 10 30 0,0
12.01.2020 15:00:00 10,4 6,5 - - 29 16 - - W 1024,0 10 60 0,0
12.01.2020 14:00:00 10,8 7,4 - - 31 17 - - W 1023,7 10 54 0,0
12.01.2020 13:00:00 11,0 8,6 - - 31 17 - - W 1023,9 10 54 0,0
12.01.2020 12:00:00 11,2 9,2 - - 34 18 - - WSW 1024,0 10 60 0,0
12.01.2020 11:00:00 10,7 9,0 - - 35 19 46 25 WSW 1024,2 10 12 0,0
12.01.2020 10:00:00 10,8 9,5 - - 34 18 46 25 WSW 1023,7 10 6 0,0
12.01.2020 09:00:00 10,6 9,7 10,0 9,7 26 14 - - WSW 1023,1 8 0 0,0
12.01.2020 08:00:00 10,3 9,6 - - 34 18 54 29 SW 1022,5 19 0 0,0
12.01.2020 07:00:00 9,9 9,2 - - 39 21 65 35 SSW 1021,9 11 0 0,0
12.01.2020 06:00:00 10,0 8,9 - - 34 18 54 29 SSW 1021,8 10 0 0,0
12.01.2020 05:00:00 9,7 8,6 - - 35 19 57 31 SSW 1021,9 10 0 0,2
12.01.2020 04:00:00 9,6 7,9 - - 34 18 52 28 SSW 1022,1 10 0 0,0
12.01.2020 03:00:00 9,7 7,2 - - 31 17 54 29 SSW 1022,5 10 0 0,0
12.01.2020 02:00:00 9,7 7,0 - - 34 18 48 26 SW 1023,0 10 0 0,0
12.01.2020 01:00:00 9,7 6,8 - - 28 15 - - SSW 1023,1 16 0 0,0

tt = Température de l'air
td = dewpoint
tt -20cm = Température de l'air -20cm
tt -100cm = Température de l'air -100cm
ff = Vitesse du vent
fx = gusts
dd = Direction du vent
ppp = reduced air pressure
vv = visibility
sd = Ensoleillement
rr = Quantités de précipitations

stations d'obs. à proximité